weather.gov     
National Weather Service

Regional Weather Roundup
NWS Homepage
This page is being discontinued on March 12, 2014.
The same data is available at this site. Please update your bookmarks.
Thank you, and we apologize for the inconvenience.
Please send an email to SR-SRH.Webmaster@noaa.gov with any concerns.


Current Version
Previous Version:    01  02  03  04  05  06  07  08  09  10  11  12  13  14  15  16  17  18  19  20  21  22  23  24  25  26  27  
[Printable]
649
ASUS41 KLWX 260010
RWRLWX

REGIONAL WEATHER ROUNDUP
NATIONAL WEATHER SERVICE BALTIMORE MD/WASHINGTON DC
700 PM EST TUE NOV 25 2014

Note: "FAIR" indicates few or no clouds below 12,000 feet
with no significant weather and/or obstructions to visibility.
 TC=TEMPERATURE CELSIUS

 * =Non NWS site. Station does not report precipitation (e.g. rain,
    snow, etc.), thunder, or fog.

DCZ001-MDZ009-015-VAZ040>042-051-053>054-260100-
WASHINGTON METRO

CITY           SKY/WX    TMP DP  RH WIND       PRES   REMARKS
WASHINGTON NAT CLOUDY    52  33  48 S6        30.11R
DULLES         MOCLDY    44  36  73 CALM      30.10R
ANDREWS AFB    CLOUDY    49  33  53 S2        30.11R
FT BELVOIR     CLOUDY    46  36  69 CALM      30.12R
QUANTICO       CLOUDY    49  37  63 CALM      30.12R
COLLEGE PARK*  CLOUDY    46  37  71 CALM      30.10R
LEESBURG*      MOCLDY    45  36  70 CALM      30.11R
GAITHERSBURG*  PTCLDY    45  28  53 CALM      30.14R

$$

MDZ006>007-011-014-260100-
BALTIMORE METRO

CITY           SKY/WX    TMP DP  RH WIND       PRES   REMARKS
BWI AIRPORT    MOCLDY    46  32  58 CALM      30.09R
MD SCIENCE CTR   N/A     51  30  44 MISG      30.10R
ANNAPOLIS      CLOUDY    47  39  74 CALM      30.10R
FORT MEADE*    MOCLDY    43  32  65 CALM      30.12R

$$

MDZ012-015-019>023-260100-
MARYLAND EASTERN SHORE

CITY           SKY/WX    TMP DP  RH WIND       PRES   REMARKS
OCEAN CITY     CLOUDY    51  38  60 N3        30.11R
SALISBURY      MOCLDY   N/A N/A N/A CALM      30.10R
BAY BRIDGE AP*   N/A     48  36  61 CALM      30.10S
CAMBRIDGE*     CLOUDY    48  41  76 CALM      30.11R
EASTON*        MOCLDY    50  39  66 CALM      30.13R

$$

MDZ017>025-260100-
SOUTHERN MARYLAND

CITY           SKY/WX    TMP DP  RH WIND       PRES   REMARKS
PATUXENT RIVER CLOUDY    49  39  68 S3        30.12R
ST INIGOES     CLOUDY    49  39  68 CALM      30.11R
LEONARDTOWN*   CLOUDY    48  36  61 CALM      30.13R

$$

MDZ003>005-260100-
NORTH CENTRAL MARYLAND

CITY           SKY/WX    TMP DP  RH WIND       PRES   REMARKS
FREDERICK*     CLEAR     39  30  70 CALM      30.12R
HAGERSTOWN APT PTCLDY    46  28  49 SE6       30.09R
WESTMINSTER*   PTCLDY    45  30  57 CALM      30.10R

$$

MDZ501>502-260100-
WESTERN MARYLAND

CITY           SKY/WX    TMP DP  RH WIND       PRES   REMARKS
OAKLAND*       PTCLDY    36  23  60 W5        30.08R
CUMBERLAND*    PTCLDY    50  27  40 CALM      30.14R

$$

VAZ025>031-260100-
SHENANDOAH VALLEY

CITY           SKY/WX    TMP DP  RH WIND       PRES   REMARKS
WINCHESTER*    CLEAR     43  27  52 CALM      30.09R
FRONT ROYAL*   FAIR      43  28  56 CALM      30.08R
LURAY*         FAIR      43  34  70 CALM      30.08S
NEW MARKET*    FAIR      35  30  81 CALM      30.08R
STAUNTON*      MOCLDY    40  29  65 CALM      30.10R
WAYNESBORO*    FAIR      42  27  55 CALM      30.08R

$$

WVZ021-048>050-054>055-260100-
EASTERN WEST VIRGINIA PANHANDLE

CITY           SKY/WX    TMP DP  RH WIND       PRES   REMARKS
MARTINSBURG    PTCLDY    41  26  55 CALM      30.10R
PETERSBURG*    PTCLDY    38  27  65 CALM      30.10R

$$

VAZ036>039-050-260100-
CENTRAL FOOTHILLS

CITY           SKY/WX    TMP DP  RH WIND       PRES   REMARKS
CHARLOTTESVILL MOCLDY    51  32  48 S6        30.09R
CULPEPER*      MOCLDY    45  41  87 CALM      30.10R
ORANGE*        MOCLDY    45  39  81 CALM      30.11R
GORDONSVILLE*  FAIR      45  35  68 CALM      30.10R
WARRENTON*     FAIR      43  42  97 CALM      30.10R

$$

VAZ055>057-260100-
NORTH AND CENTRAL PIEDMONT

CITY           SKY/WX    TMP DP  RH WIND       PRES   REMARKS
FREDERICKSBRG* CLOUDY    50  40  67 CALM      30.10R
STAFFORD*      CLOUDY    46  36  68 CALM      30.14R

$$

NCZ024-NYZ072-PAZ021-071-VAZ022-071-260100-
OTHER REGIONAL OBSERVATIONS

CITY           SKY/WX    TMP DP  RH WIND       PRES   REMARKS
NEW YORK CITY  MOCLDY    52  28  39 MISG      30.08R
PHILADELPHIA   CLOUDY    50  31  48 SW8       30.11R
PITTSBURGH     CLEAR     36  26  67 NW7       30.14R
ROANOKE        MOCLDY    47  29  49 N6        30.11R
RICHMOND       CLOUDY    54  40  59 E3        30.09S
RALEIGH        LGT RAIN  53  41  63 NE3       30.07S

$$

ANZ530>537-260100-
MARINE OBSERVATIONS

STATION/POSITION TIME  TEMP    WIND        PRES
                       AIR SEA DIR/SP/G
                 (UTC) (F)     (DEG/KT/KT) (MB)
THOMAS PT LIGHT  0000   50 48  180/  6/  6 1020.9R
BALT KEY BRIDGE  0000   48     110/  6/  6 1019.0R
COVE POINT       0000   51     180/  4/  4 1019.7R
LEWISETTA        0000   52 51  150/  2/  3 1019.1S
SOLOMONS ISLAND  0000      50                N/A
PINEY POINT      0000           90/  2/  2   N/A

$$





U.S. Dept. of Commerce
NOAA National Weather Service
1325 East West Highway
Silver Spring, MD 20910
E-mail: w-nws.webmaster@noaa.gov
Page last modified: May 16, 2007
NATIONAL WEATHER SERVICE: for Safety, for Work, for Fun - FOR LIFE